Charlotte, MI

6:02 PM EDT on August 21, 2017 (GMT -0400)
Charlotte

Weather History for KFPK - April, 2013

Change the Weather History Date:

Monday, April 22, 2013

  Actual Average (KLAN) Record (KLAN)
Temperature  
Mean Temperature 47 °F -  
Max Temperature 62 °F 60 °F 86 °F (1980)
Min Temperature 32 °F 37 °F 21 °F (1875)
Degree Days  
Heating Degree Days 18    
Moisture  
Dew Point 31 °F    
Average Humidity 57    
Maximum Humidity 92    
Minimum Humidity 29    
Precipitation  
Precipitation 0.00 in - - ()
Sea Level Pressure  
Sea Level Pressure 30.28 in    
Wind  
Wind Speed 5 mph (SE)    
Max Wind Speed 10 mph    
Max Gust Speed 16 mph    
Visibility 10 miles    
Events      
Averages and records for this station are not official NWS values.
T = Trace of Precipitation, MM = Missing Value Source: NWS Daily Summary

Daily Weather History Graph

Daily Weather History Graph

Search for Another Location

Airport or City:

Trip Planner

Search our weather history database for the weather conditions in past years. The results will help you decide how hot, cold, wet, or windy it might be!

Date:

Astronomy

Apr. 22, 2013 Rise Set
Actual Time 6:46 AM EDT 8:29 PM EDT
Civil Twilight 6:16 AM EDT 8:59 PM EDT
Nautical Twilight 5:40 AM EDT 9:35 PM EDT
Astronomical Twilight 5:01 AM EDT 10:15 PM EDT
Moon 5:13 PM EDT (4/22) 4:45 AM EDT (4/22)
Length of Visible Light 14h 42m
Length of Day
13h 42m
Waxing Gibbous, 87% of the Moon is Illuminated
Apr 22
Waxing Gibbous
Apr 25
Full
May 2
Last Quarter
May 9
New
May 18
First Quarter

Hourly Weather History & Observations

Time (EDT) Temp. Windchill Dew Point Humidity Pressure Visibility Wind Dir Wind Speed Gust Speed Precip Events Conditions
12:15 AM 36.7 °F 31.2 °F 25.3 °F 64% 30.41 in 10.0 mi SE 6.9 mph - N/A   Clear
12:35 AM 36.0 °F 31.1 °F 25.3 °F 65% 30.41 in 10.0 mi SE 5.8 mph - N/A   Clear
12:55 AM 35.2 °F 28.8 °F 25.7 °F 68% 30.41 in 10.0 mi SE 8.1 mph - N/A   Clear
1:15 AM 34.7 °F 30.6 °F 27.0 °F 73% 30.41 in 10.0 mi SE 4.6 mph - N/A   Clear
1:35 AM 34.2 °F 30.0 °F 27.3 °F 76% 30.40 in 10.0 mi SE 4.6 mph - N/A   Clear
1:55 AM 34.0 °F 31.0 °F 27.7 °F 78% 30.40 in 10.0 mi SE 3.5 mph - N/A   Clear
2:15 AM 33.8 °F 29.6 °F 28.0 °F 79% 30.38 in 10.0 mi SE 4.6 mph - N/A   Clear
2:35 AM 33.4 °F 29.1 °F 28.4 °F 82% 30.38 in 10.0 mi SE 4.6 mph - N/A   Clear
2:55 AM 33.1 °F 28.7 °F 28.4 °F 83% 30.37 in 10.0 mi SE 4.6 mph - N/A   Clear
3:15 AM 33.3 °F 27.9 °F 28.9 °F 84% 30.37 in 10.0 mi SE 5.8 mph - N/A   Clear
3:35 AM 33.4 °F 30.4 °F 29.3 °F 85% 30.36 in 10.0 mi SSE 3.5 mph - N/A   Clear
3:55 AM 33.1 °F 28.7 °F 29.3 °F 86% 30.36 in 10.0 mi SE 4.6 mph - N/A   Clear
4:15 AM 33.3 °F 27.9 °F 29.7 °F 87% 30.35 in 10.0 mi SE 5.8 mph - N/A   Clear
4:35 AM 33.4 °F 30.4 °F 29.8 °F 87% 30.35 in 10.0 mi SE 3.5 mph - N/A   Clear
4:55 AM 33.6 °F 30.6 °F 30.0 °F 87% 30.35 in 10.0 mi SE 3.5 mph - N/A   Clear
5:15 AM 33.4 °F - 30.2 °F 88% 30.35 in 10.0 mi Calm Calm - N/A   Clear
5:35 AM 33.4 °F - 30.2 °F 88% 30.35 in 10.0 mi Calm Calm - N/A   Clear
5:55 AM 33.3 °F - 30.6 °F 90% 30.35 in 10.0 mi Calm Calm - N/A   Clear
6:15 AM 33.4 °F - 30.7 °F 90% 30.35 in 10.0 mi Calm Calm - N/A   Clear
6:35 AM 32.9 °F - 30.7 °F 92% 30.34 in 10.0 mi Calm Calm - N/A   Clear
6:55 AM 33.1 °F - 31.1 °F 92% 30.35 in 10.0 mi Calm Calm - N/A   Clear
7:15 AM 33.1 °F - 31.1 °F 92% 30.35 in 10.0 mi Calm Calm - N/A   Clear
7:35 AM 33.8 °F - 31.8 °F 92% 30.35 in 7.0 mi Calm Calm - N/A   Clear
7:55 AM 34.9 °F - 32.2 °F 90% 30.36 in 10.0 mi Calm Calm - N/A   Clear
8:15 AM 36.5 °F 33.9 °F 33.1 °F 87% 30.36 in 10.0 mi SE 3.5 mph - N/A   Clear
8:35 AM 38.1 °F 33.7 °F 33.8 °F 84% 30.36 in 10.0 mi ESE 5.8 mph - N/A   Clear
8:55 AM 40.3 °F 37.1 °F 34.3 °F 79% 30.36 in 10.0 mi East 4.6 mph - N/A   Clear
9:15 AM 42.3 °F 39.4 °F 35.1 °F 76% 30.35 in 10.0 mi ESE 4.6 mph - N/A   Clear
9:35 AM 44.6 °F 41.4 °F 34.5 °F 68% 30.35 in 10.0 mi SE 5.8 mph - N/A   Clear
9:55 AM 46.4 °F 43.5 °F 34.2 °F 62% 30.34 in 10.0 mi SSE 5.8 mph - N/A   Clear
10:15 AM 47.5 °F - 33.1 °F 57% 30.33 in 10.0 mi SSE 5.8 mph - N/A   Clear
10:35 AM 49.6 °F - 32.7 °F 52% 30.33 in 10.0 mi SSE 9.2 mph - N/A   Clear
10:55 AM 51.3 °F - 32.4 °F 48% 30.33 in 10.0 mi SSE 6.9 mph - N/A   Clear
11:15 AM 53.6 °F - 32.2 °F 44% 30.32 in 10.0 mi SSE 9.2 mph - N/A   Clear
11:35 AM 54.0 °F - 31.8 °F 43% 30.33 in 10.0 mi South 6.9 mph - N/A   Clear
11:55 AM 54.7 °F - 31.5 °F 41% 30.32 in 10.0 mi SSE 6.9 mph - N/A   Clear
12:15 PM 55.2 °F - 30.2 °F 38% 30.31 in 10.0 mi SSE 4.6 mph - N/A   Clear
12:35 PM 56.3 °F - 31.1 °F 38% 30.30 in 10.0 mi SSE 10.4 mph - N/A   Clear
12:55 PM 57.4 °F - 31.8 °F 38% 30.30 in 10.0 mi South 5.8 mph - N/A   Clear
1:15 PM 57.6 °F - 30.6 °F 36% 30.29 in 10.0 mi South 8.1 mph - N/A   Clear
1:35 PM 58.1 °F - 31.1 °F 36% 30.28 in 10.0 mi South 9.2 mph - N/A   Clear
1:55 PM 59.0 °F - 30.4 °F 34% 30.27 in 10.0 mi South 6.9 mph - N/A   Clear
2:15 PM 60.1 °F - 31.1 °F 33% 30.26 in 10.0 mi South 8.1 mph - N/A   Clear
2:35 PM 59.9 °F - 30.0 °F 32% 30.26 in 10.0 mi SSE 5.8 mph - N/A   Clear
2:55 PM 60.6 °F - 30.2 °F 32% 30.25 in 10.0 mi SE 10.4 mph - N/A   Clear
3:15 PM 61.7 °F - 31.6 °F 32% 30.23 in 10.0 mi ESE 9.2 mph - N/A   Clear
3:35 PM 61.2 °F - 30.7 °F 32% 30.23 in 10.0 mi SSE 8.1 mph - N/A   Clear
3:55 PM 62.1 °F - 30.6 °F 31% 30.22 in 10.0 mi South 6.9 mph - N/A   Clear
4:15 PM 61.9 °F - 31.3 °F 32% 30.22 in 10.0 mi South 9.2 mph - N/A   Clear
4:35 PM 62.2 °F - 30.2 °F 30% 30.21 in 10.0 mi ESE 6.9 mph - N/A   Clear
4:55 PM 61.9 °F - 29.7 °F 30% 30.20 in 10.0 mi SE 9.2 mph 16.1 mph N/A   Clear
5:15 PM 62.1 °F - 29.5 °F 29% 30.19 in 10.0 mi SSE 10.4 mph - N/A   Clear
5:35 PM 61.9 °F - 29.5 °F 29% 30.18 in 10.0 mi SSE 9.2 mph - N/A   Clear
5:55 PM 61.7 °F - 28.9 °F 29% 30.18 in 10.0 mi SSE 10.4 mph - N/A   Clear
6:15 PM 61.9 °F - 30.0 °F 30% 30.16 in 10.0 mi South 10.4 mph - N/A   Clear
6:35 PM 61.2 °F - 29.3 °F 30% 30.16 in 10.0 mi SE 6.9 mph - N/A   Clear
6:55 PM 60.8 °F - 29.3 °F 30% 30.16 in 10.0 mi SSE 10.4 mph - N/A   Clear
7:15 PM 59.9 °F - 29.7 °F 32% 30.16 in 10.0 mi SSE 8.1 mph - N/A   Clear
7:35 PM 59.5 °F - 29.3 °F 32% 30.16 in 10.0 mi SSE 9.2 mph - N/A   Clear
7:55 PM 58.3 °F - 28.9 °F 33% 30.15 in 10.0 mi SSE 6.9 mph - N/A   Clear
8:15 PM 57.0 °F - 28.9 °F 34% 30.15 in 10.0 mi SE 5.8 mph - N/A   Clear
8:35 PM 55.6 °F - 28.8 °F 36% 30.15 in 10.0 mi SE 3.5 mph - N/A   Clear
8:55 PM 55.2 °F - 29.3 °F 37% 30.15 in 10.0 mi Calm Calm - N/A   Clear
9:15 PM 53.4 °F - 30.9 °F 42% 30.16 in 10.0 mi ESE 5.8 mph - N/A   Clear
9:35 PM 52.5 °F - 32.0 °F 46% 30.15 in 10.0 mi ESE 5.8 mph - N/A   Clear
9:55 PM 52.2 °F - 32.4 °F 47% 30.16 in 10.0 mi ESE 3.5 mph - N/A   Clear
10:15 PM 50.9 °F - 32.7 °F 50% 30.17 in 10.0 mi ESE 5.8 mph - N/A   Clear
10:35 PM 50.2 °F - 33.8 °F 53% 30.16 in 10.0 mi ESE 4.6 mph - N/A   Clear
10:55 PM 49.5 °F - 34.0 °F 55% 30.16 in 10.0 mi ESE 4.6 mph - N/A   Clear
11:15 PM 49.1 °F - 32.7 °F 53% 30.16 in 10.0 mi SE 5.8 mph - N/A   Clear
11:35 PM 47.8 °F - 32.5 °F 55% 30.15 in 10.0 mi ESE 4.6 mph - N/A   Clear
11:55 PM 47.3 °F - 32.9 °F 57% 30.15 in 10.0 mi ESE 5.8 mph - N/A   Clear